This is the latest recevied weather packets stored in our database for station/object YD2CLX-11. If no packets are shown the sender has not sent any weather packets the latest 10 day(s).
| Time | Temp. | Humidity | Pressure | Rain* | Wind** | Luminosity | Snow |
|---|---|---|---|---|---|---|---|
| 1787886789 | 35.56° C | 38% | 1000.7 hPa | - | - | - | - |
| 1787886188 | 35.56° C | 37% | 1000.9 hPa | - | - | - | - |
| 1787885587 | 35.56° C | 39% | 1000.9 hPa | - | - | - | - |
| 1787884986 | 35.56° C | 39% | 1000.9 hPa | - | - | - | - |
| 1787884385 | 35° C | 39% | 1000.9 hPa | - | - | - | - |
| 1787883785 | 33.89° C | 42% | 1001.2 hPa | - | - | - | - |
| 1787883184 | 34.44° C | 41% | 1001.2 hPa | - | - | - | - |
| 1787882583 | 35° C | 40% | 1001.5 hPa | - | - | - | - |
| 1787881982 | 34.44° C | 41% | 1001.5 hPa | - | - | - | - |
| 1787881381 | 34.44° C | 42% | 1001.6 hPa | - | - | - | - |
| 1787880780 | 33.89° C | 43% | 1001.5 hPa | - | - | - | - |
| 1787880179 | 32.78° C | 45% | 1001.5 hPa | - | - | - | - |
| 1787879579 | 32.22° C | 47% | 1001.5 hPa | - | - | - | - |
| 1787878978 | 32.78° C | 49% | 1001.4 hPa | - | - | - | - |
| 1787878377 | 32.22° C | 50% | 1001.5 hPa | - | - | - | - |
| 1787877776 | 32.22° C | 50% | 1001.6 hPa | - | - | - | - |
| 1787877176 | 31.11° C | 53% | 1001.5 hPa | - | - | - | - |
| 1787876575 | 31.67° C | 56% | 1001.5 hPa | - | - | - | - |
| 1787875974 | 30.56° C | 61% | 1001.5 hPa | - | - | - | - |
| 1787875374 | 29.44° C | 66% | 1001.5 hPa | - | - | - | - |
| 1787874772 | 28.33° C | 67% | 1001.5 hPa | - | - | - | - |
| 1787874172 | 26.67° C | 68% | 1001.5 hPa | - | - | - | - |
| 1787873571 | 25.56° C | 72% | 1001.5 hPa | - | - | - | - |
| 1787872970 | 24.44° C | 71% | 1001.4 hPa | - | - | - | - |
| 1787872369 | 23.89° C | 72% | 1001.3 hPa | - | - | - | - |
* Rain since midnight (hover to see other rain measurements)
** Current wind speed in m/s (hover to see current wind gust speed)